,,,PA_Meas_PMT16A,,PR_Meas_QMR101_102,,RH_Meas_QMH101,,SR_Meas_QMS101,,TA_Meas_QMH101,,GenWind,,GenWind,
date,time,status,PA,status,PR,status,RH,status,SR,status,TA,status,DirAvg,status,SpdAvg,
2011-03-04, 00:00:04,VALID,1009.21,VALID,0,VALID,99.8974,VALID,0,VALID,24.686,VALID,333,VALID,0.341016,
2011-03-04, 00:01:04,VALID,1009.2,VALID,0,VALID,99.9279,VALID,0.105969,VALID,24.6666,VALID,333,VALID,0,
2011-03-04, 00:02:04,VALID,1009.2,VALID,0,VALID,99.9813,VALID,0,VALID,24.6471,VALID,333,VALID,0.425391,
2011-03-04, 00:03:04,VALID,1009.17,VALID,0,VALID,100.05,VALID,0,VALID,24.6276,VALID,358,VALID,1.22148,
2011-03-04, 00:04:04,VALID,1009.15,VALID,0,VALID,100.012,VALID,0.105969,VALID,24.6276,VALID,356,VALID,0.535547,
2011-03-04, 00:05:04,VALID,1009.14,VALID,0,VALID,100.096,VALID,0.105969,VALID,24.6081,VALID,356,VALID,0.225391,
2011-03-04, 00:06:04,VALID,1009.14,VALID,0,VALID,100.111,VALID,0,VALID,24.6081,VALID,5,VALID,0.602734,
2011-03-04, 00:07:04,VALID,1009.13,VALID,0,VALID,100.195,VALID,0.105969,VALID,24.5886,VALID,345,VALID,0.361719,
2011-03-04, 00:08:04,VALID,1009.15,VALID,0,VALID,100.241,VALID,0.105969,VALID,24.5691,VALID,342,VALID,0.408984,
2011-03-04, 00:09:04,VALID,1009.13,VALID,0,VALID,100.324,VALID,0.105969,VALID,24.5691,VALID,302,VALID,0.321484,
2011-03-04, 00:10:04,VALID,1009.12,VALID,0,VALID,100.401,VALID,0.105969,VALID,24.571,VALID,305,VALID,0.478906,
2011-03-04, 00:11:04,VALID,1009.13,VALID,0,VALID,100.37,VALID,0.105969,VALID,24.5496,VALID,318,VALID,0.120312,
2011-03-04, 00:12:04,VALID,1009.13,VALID,0,VALID,100.324,VALID,0.105969,VALID,24.5301,VALID,3,VALID,1.30977,
2011-03-04, 00:13:04,VALID,1009.14,VALID,0,VALID,100.324,VALID,0,VALID,24.5301,VALID,320,VALID,0.846094,
2011-03-04, 00:14:04,VALID,1009.13,VALID,0,VALID,100.393,VALID,0,VALID,24.5301,VALID,344,VALID,0.721484,
2011-03-04, 00:15:04,VALID,1009.16,VALID,0,VALID,100.317,VALID,0,VALID,24.5515,VALID,306,VALID,0.392188,
2011-03-04, 00:16:04,VALID,1009.16,VALID,0,VALID,100.241,VALID,0,VALID,24.5301,VALID,311,VALID,0.424609,
2011-03-04, 00:17:04,VALID,1009.14,VALID,0,VALID,100.21,VALID,0,VALID,24.5496,VALID,342,VALID,0.325,
2011-03-04, 00:18:04,VALID,1009.18,VALID,0,VALID,100.164,VALID,0,VALID,24.5301,VALID,284,VALID,0.121484,
2011-03-04, 00:19:04,VALID,1009.16,VALID,0,VALID,100.134,VALID,0,VALID,24.571,VALID,284,VALID,0,
2011-03-04, 00:20:04,VALID,1009.16,VALID,0,VALID,100.126,VALID,0.105969,VALID,24.5301,VALID,290,VALID,0.686719,
2011-03-04, 00:21:04,VALID,1009.19,VALID,0,VALID,100.027,VALID,0,VALID,24.5515,VALID,308,VALID,0.491016,
2011-03-04, 00:22:04,VALID,1009.18,VALID,0,VALID,99.966,VALID,0,VALID,24.5496,VALID,275,VALID,0.497266,
2011-03-04, 00:23:04,VALID,1009.19,VALID,0,VALID,99.9126,VALID,0,VALID,24.5905,VALID,275,VALID,0.134375,
2011-03-04, 00:24:04,VALID,1009.2,VALID,0,VALID,99.8669,VALID,0,VALID,24.5691,VALID,275,VALID,0.188672,
2011-03-04, 00:25:04,VALID,1009.17,VALID,0,VALID,99.783,VALID,0,VALID,24.571,VALID,297,VALID,0.900391,
2011-03-04, 00:26:04,VALID,1009.14,VALID,0,VALID,99.7525,VALID,0.105969,VALID,24.5496,VALID,313,VALID,1.31133,
2011-03-04, 00:27:04,VALID,1009.13,VALID,0,VALID,99.8059,VALID,0,VALID,24.571,VALID,287,VALID,0.217969,
2011-03-04, 00:28:04,VALID,1009.11,VALID,0,VALID,99.722,VALID,0,VALID,24.5905,VALID,311,VALID,0.514844,
2011-03-04, 00:29:04,VALID,1009.09,VALID,0,VALID,99.722,VALID,0,VALID,24.5515,VALID,283,VALID,0.0457031,
2011-03-04, 00:30:04,VALID,1009.04,VALID,0,VALID,99.7601,VALID,0.105969,VALID,24.5301,VALID,303,VALID,0.203125,
2011-03-04, 00:31:04,VALID,1009.06,VALID,0,VALID,99.8592,VALID,0.105969,VALID,24.5106,VALID,305,VALID,0.375781,
2011-03-04, 00:32:04,VALID,1009.04,VALID,0,VALID,100.004,VALID,0,VALID,24.4911,VALID,306,VALID,0.0621094,
2011-03-04, 00:33:04,VALID,1008.99,VALID,0,VALID,100.103,VALID,0,VALID,24.493,VALID,321,VALID,0.507813,
2011-03-04, 00:34:04,VALID,1008.97,VALID,0,VALID,100.126,VALID,0,VALID,24.4522,VALID,312,VALID,0.408594,
2011-03-04, 00:35:04,VALID,1008.93,VALID,0,VALID,100.18,VALID,0.105969,VALID,24.4522,VALID,324,VALID,0.339063,
2011-03-04, 00:36:04,VALID,1008.92,VALID,0,VALID,100.233,VALID,0.105969,VALID,24.4327,VALID,297,VALID,0.775,
2011-03-04, 00:37:04,VALID,1008.92,VALID,0,VALID,100.302,VALID,0,VALID,24.4132,VALID,271,VALID,0.125391,
2011-03-04, 00:38:04,VALID,1008.89,VALID,0,VALID,100.332,VALID,0,VALID,24.415,VALID,282,VALID,0.0984375,
2011-03-04, 00:39:04,VALID,1008.86,VALID,0,VALID,100.302,VALID,0,VALID,24.3742,VALID,282,VALID,0,
2011-03-04, 00:40:04,VALID,1008.85,VALID,0,VALID,100.34,VALID,0,VALID,24.3937,VALID,282,VALID,0,
2011-03-04, 00:41:04,VALID,1008.85,VALID,0,VALID,100.37,VALID,0,VALID,24.3937,VALID,282,VALID,0,
2011-03-04, 00:42:04,VALID,1008.84,VALID,0,VALID,100.363,VALID,0.105969,VALID,24.4132,VALID,282,VALID,0,
2011-03-04, 00:43:04,VALID,1008.85,VALID,0,VALID,100.324,VALID,0,VALID,24.4132,VALID,288,VALID,0.482422,
2011-03-04, 00:44:04,VALID,1008.85,VALID,0,VALID,100.172,VALID,0,VALID,24.4327,VALID,278,VALID,0.356641,
2011-03-04, 00:45:04,VALID,1008.84,VALID,0,VALID,100.233,VALID,0,VALID,24.4327,VALID,273,VALID,0.233203,
2011-03-04, 00:46:04,VALID,1008.84,VALID,0,VALID,100.004,VALID,0.105969,VALID,24.4522,VALID,315,VALID,0.210938,
2011-03-04, 00:47:04,VALID,1008.84,VALID,0,VALID,99.844,VALID,0.105969,VALID,24.4717,VALID,304,VALID,0.417188,
2011-03-04, 00:48:04,VALID,1008.84,VALID,0,VALID,99.8211,VALID,0,VALID,24.4522,VALID,304,VALID,0.284375,
2011-03-04, 00:49:04,VALID,1008.85,VALID,0,VALID,99.8974,VALID,0.105969,VALID,24.4327,VALID,304,VALID,0.312891,
2011-03-04, 00:50:04,VALID,1008.84,VALID,0,VALID,100.027,VALID,0.105969,VALID,24.4327,VALID,305,VALID,0.441797,
2011-03-04, 00:51:04,VALID,1008.8,VALID,0,VALID,100.065,VALID,0.105969,VALID,24.3937,VALID,310,VALID,0.179297,
2011-03-04, 00:52:04,VALID,1008.8,VALID,0,VALID,100.172,VALID,0.105969,VALID,24.3937,VALID,310,VALID,0.201562,
2011-03-04, 00:53:04,VALID,1008.78,VALID,0,VALID,100.225,VALID,0.105969,VALID,24.3547,VALID,310,VALID,0.00117188,
2011-03-04, 00:54:04,VALID,1008.74,VALID,0,VALID,100.317,VALID,0,VALID,24.3352,VALID,314,VALID,0.69375,
2011-03-04, 00:55:04,VALID,1008.74,VALID,0,VALID,100.363,VALID,0,VALID,24.3352,VALID,318,VALID,0.332031,
2011-03-04, 00:56:04,VALID,1008.73,VALID,0,VALID,100.431,VALID,0.105969,VALID,24.3158,VALID,319,VALID,0.276953,
2011-03-04, 00:57:04,VALID,1008.73,VALID,0,VALID,100.515,VALID,0.105969,VALID,24.3158,VALID,313,VALID,0.307422,
2011-03-04, 00:58:04,VALID,1008.73,VALID,0,VALID,100.538,VALID,0.105969,VALID,24.3158,VALID,313,VALID,0.180078,
2011-03-04, 00:59:04,VALID,1008.7,VALID,0,VALID,100.546,VALID,0.105969,VALID,24.2963,VALID,313,VALID,0,
2011-03-04, 01:00:04,VALID,1008.69,VALID,0,VALID,100.751,VALID,0,VALID,24.2768,VALID,313,VALID,0,
2011-03-04, 01:01:04,VALID,1008.7,VALID,0,VALID,100.782,VALID,0.105969,VALID,24.2768,VALID,312,VALID,0.0914062,
2011-03-04, 01:02:04,VALID,1008.69,VALID,0,VALID,100.812,VALID,0.105969,VALID,24.2573,VALID,267,VALID,0.136719,
2011-03-04, 01:03:04,VALID,1008.65,VALID,0,VALID,100.82,VALID,0,VALID,24.2981,VALID,289,VALID,0.0621094,
2011-03-04, 01:04:04,VALID,1008.65,VALID,0,VALID,100.767,VALID,0,VALID,24.2981,VALID,302,VALID,0.185156,
2011-03-04, 01:05:04,VALID,1008.63,VALID,0,VALID,100.668,VALID,0.105969,VALID,24.2963,VALID,302,VALID,0,
2011-03-04, 01:06:04,VALID,1008.62,VALID,0,VALID,100.568,VALID,0,VALID,24.2963,VALID,274,VALID,0.283594,
2011-03-04, 01:07:04,VALID,1008.59,VALID,0,VALID,100.546,VALID,0.105969,VALID,24.2963,VALID,355,VALID,0.429297,
2011-03-04, 01:08:04,VALID,1008.56,VALID,0,VALID,100.568,VALID,0.105969,VALID,24.2768,VALID,23,VALID,0.349609,
2011-03-04, 01:09:04,VALID,1008.52,VALID,0,VALID,100.629,VALID,0.105969,VALID,24.2768,VALID,346,VALID,0.436719,
2011-03-04, 01:10:04,VALID,1008.5,VALID,0,VALID,100.736,VALID,0.105969,VALID,24.2378,VALID,346,VALID,0.145313,
2011-03-04, 01:11:04,VALID,1008.5,VALID,0,VALID,100.805,VALID,0.105969,VALID,24.2378,VALID,337,VALID,0.158594,
2011-03-04, 01:12:04,VALID,1008.47,VALID,0,VALID,100.889,VALID,0.105969,VALID,24.2183,VALID,314,VALID,0.156641,
2011-03-04, 01:13:04,VALID,1008.44,VALID,0,VALID,100.95,VALID,0,VALID,24.1988,VALID,337,VALID,0.372266,
2011-03-04, 01:14:04,VALID,1008.45,VALID,0,VALID,101.072,VALID,0.105969,VALID,24.158,VALID,6,VALID,0.294531,
2011-03-04, 01:15:04,VALID,1008.43,VALID,0,VALID,101.156,VALID,0.105969,VALID,24.1404,VALID,15,VALID,0.524609,
2011-03-04, 01:16:04,VALID,1008.43,VALID,0,VALID,101.262,VALID,0,VALID,24.1404,VALID,6,VALID,0.01875,
2011-03-04, 01:17:04,VALID,1008.42,VALID,0,VALID,101.323,VALID,0,VALID,24.1209,VALID,4,VALID,0.428906,
2011-03-04, 01:18:04,VALID,1008.38,VALID,0,VALID,101.415,VALID,0,VALID,24.1209,VALID,3,VALID,0.251953,
2011-03-04, 01:19:04,VALID,1008.4,VALID,0,VALID,101.453,VALID,0.105969,VALID,24.1209,VALID,3,VALID,0.446094,
2011-03-04, 01:20:04,VALID,1008.36,VALID,0,VALID,101.445,VALID,0.105969,VALID,24.1014,VALID,3,VALID,0,
2011-03-04, 01:21:04,VALID,1008.38,VALID,0,VALID,101.445,VALID,0.105969,VALID,24.1209,VALID,3,VALID,0,
2011-03-04, 01:22:04,VALID,1008.39,VALID,0,VALID,101.476,VALID,0,VALID,24.1014,VALID,3,VALID,0,
2011-03-04, 01:23:04,VALID,1008.33,VALID,0,VALID,101.484,VALID,0,VALID,24.1032,VALID,3,VALID,0.0566406,
2011-03-04, 01:24:04,VALID,1008.37,VALID,0,VALID,101.491,VALID,0,VALID,24.1032,VALID,3,VALID,0.0683594,
2011-03-04, 01:25:04,VALID,1008.31,VALID,0,VALID,101.522,VALID,0,VALID,24.0837,VALID,3,VALID,0.0226563,
2011-03-04, 01:26:04,VALID,1008.29,VALID,0,VALID,101.575,VALID,0,VALID,24.0837,VALID,3,VALID,0,
2011-03-04, 01:27:04,VALID,1008.3,VALID,0,VALID,101.583,VALID,0,VALID,24.0837,VALID,3,VALID,0,
2011-03-04, 01:28:04,VALID,1008.26,VALID,0,VALID,101.567,VALID,0,VALID,24.1051,VALID,352,VALID,0.217969,
2011-03-04, 01:29:04,VALID,1008.26,VALID,0,VALID,101.56,VALID,0,VALID,24.0837,VALID,352,VALID,0.148047,
2011-03-04, 01:30:04,VALID,1008.25,VALID,0,VALID,101.522,VALID,0,VALID,24.0837,VALID,352,VALID,0.0757812,
2011-03-04, 01:31:04,VALID,1008.22,VALID,0,VALID,101.537,VALID,0,VALID,24.0837,VALID,352,VALID,0.217969,
2011-03-04, 01:32:04,VALID,1008.22,VALID,0,VALID,101.583,VALID,0,VALID,24.0856,VALID,352,VALID,0.264844,
2011-03-04, 01:33:04,VALID,1008.23,VALID,0,VALID,101.583,VALID,0,VALID,24.0448,VALID,352,VALID,0.00195313,
2011-03-04, 01:34:04,VALID,1008.2,VALID,0,VALID,101.598,VALID,0,VALID,24.0448,VALID,352,VALID,0,
2011-03-04, 01:35:04,VALID,1008.17,VALID,0,VALID,101.598,VALID,0,VALID,24.0661,VALID,6,VALID,0.123828,
2011-03-04, 01:36:04,VALID,1008.17,VALID,0,VALID,101.613,VALID,0,VALID,24.0253,VALID,6,VALID,0,
2011-03-04, 01:37:04,VALID,1008.13,VALID,0,VALID,101.682,VALID,0,VALID,24.0253,VALID,6,VALID,0,
2011-03-04, 01:38:04,VALID,1008.1,VALID,0,VALID,101.728,VALID,0,VALID,24.0058,VALID,6,VALID,0,
2011-03-04, 01:39:04,VALID,1008.1,VALID,0,VALID,101.773,VALID,0,VALID,24.0058,VALID,6,VALID,0,
2011-03-04, 01:40:04,VALID,1008.08,VALID,0,VALID,101.895,VALID,0,VALID,23.9863,VALID,6,VALID,0,
2011-03-04, 01:41:04,VALID,1008.03,VALID,0,VALID,101.941,VALID,0,VALID,23.9668,VALID,6,VALID,0,
2011-03-04, 01:42:04,VALID,1008.01,VALID,0,VALID,101.964,VALID,0.105969,VALID,23.9668,VALID,6,VALID,0,
2011-03-04, 01:43:04,VALID,1007.99,VALID,0,VALID,102.071,VALID,0,VALID,23.9473,VALID,6,VALID,0,
2011-03-04, 01:44:04,VALID,1007.97,VALID,0,VALID,102.155,VALID,0,VALID,23.9084,VALID,6,VALID,0,
2011-03-04, 01:45:04,VALID,1007.97,VALID,0,VALID,102.231,VALID,0,VALID,23.9084,VALID,6,VALID,0,
2011-03-04, 01:46:04,VALID,1007.97,VALID,0,VALID,102.284,VALID,0,VALID,23.8889,VALID,6,VALID,0,
2011-03-04, 01:47:04,VALID,1007.95,VALID,0,VALID,102.33,VALID,0,VALID,23.8499,VALID,6,VALID,0,
2011-03-04, 01:48:04,VALID,1007.9,VALID,0,VALID,102.383,VALID,0,VALID,23.8499,VALID,6,VALID,0.0105469,
2011-03-04, 01:49:04,VALID,1007.88,VALID,0,VALID,102.437,VALID,0,VALID,23.8694,VALID,6,VALID,0,
2011-03-04, 01:50:04,VALID,1007.83,VALID,0,VALID,102.444,VALID,0,VALID,23.8499,VALID,6,VALID,0,
2011-03-04, 01:51:04,VALID,1007.84,VALID,0,VALID,102.444,VALID,0,VALID,23.8286,VALID,6,VALID,0,
2011-03-04, 01:52:04,VALID,1007.82,VALID,0,VALID,102.49,VALID,0,VALID,23.8304,VALID,6,VALID,0,
2011-03-04, 01:53:04,VALID,1007.81,VALID,0,VALID,102.536,VALID,0,VALID,23.8109,VALID,6,VALID,0,
2011-03-04, 01:54:04,VALID,1007.8,VALID,0,VALID,102.643,VALID,0,VALID,23.8109,VALID,6,VALID,0,
2011-03-04, 01:55:04,VALID,1007.78,VALID,0,VALID,102.627,VALID,0,VALID,23.772,VALID,6,VALID,0,
2011-03-04, 01:56:04,VALID,1007.77,VALID,0,VALID,102.666,VALID,0,VALID,23.772,VALID,6,VALID,0,
2011-03-04, 01:57:04,VALID,1007.73,VALID,0,VALID,102.681,VALID,0,VALID,23.7525,VALID,6,VALID,0,
2011-03-04, 01:58:04,VALID,1007.7,VALID,0,VALID,102.704,VALID,0,VALID,23.772,VALID,6,VALID,0,
2011-03-04, 01:59:04,VALID,1007.67,VALID,0,VALID,102.734,VALID,0,VALID,23.7525,VALID,6,VALID,0.0632813,
2011-03-04, 02:00:04,VALID,1007.64,VALID,0,VALID,102.719,VALID,0,VALID,23.7507,VALID,6,VALID,0,
2011-03-04, 02:01:04,VALID,1007.63,VALID,0,VALID,102.688,VALID,0,VALID,23.772,VALID,317,VALID,0.137891,
2011-03-04, 02:02:04,VALID,1007.61,VALID,0,VALID,102.696,VALID,0,VALID,23.7914,VALID,317,VALID,0,
2011-03-04, 02:03:04,VALID,1007.61,VALID,0,VALID,102.673,VALID,0.105969,VALID,23.7701,VALID,317,VALID,0,
2011-03-04, 02:04:04,VALID,1007.56,VALID,0,VALID,102.612,VALID,0,VALID,23.7701,VALID,317,VALID,0,
2011-03-04, 02:05:04,VALID,1007.54,VALID,0,VALID,102.574,VALID,0,VALID,23.772,VALID,317,VALID,0,
2011-03-04, 02:06:04,VALID,1007.54,VALID,0,VALID,102.551,VALID,0,VALID,23.7525,VALID,317,VALID,0,
2011-03-04, 02:07:04,VALID,1007.55,VALID,0,VALID,102.559,VALID,0.105969,VALID,23.7312,VALID,317,VALID,0,
2011-03-04, 02:08:04,VALID,1007.54,VALID,0,VALID,102.574,VALID,0,VALID,23.7525,VALID,317,VALID,0,
2011-03-04, 02:09:04,VALID,1007.56,VALID,0,VALID,102.597,VALID,0,VALID,23.7525,VALID,317,VALID,0,
2011-03-04, 02:10:04,VALID,1007.56,VALID,0,VALID,102.597,VALID,0.105969,VALID,23.7312,VALID,317,VALID,0,
2011-03-04, 02:11:04,VALID,1007.57,VALID,0,VALID,102.605,VALID,0,VALID,23.7525,VALID,317,VALID,0,
2011-03-04, 02:12:04,VALID,1007.59,VALID,0,VALID,102.582,VALID,0,VALID,23.7525,VALID,317,VALID,0,
2011-03-04, 02:13:04,VALID,1007.55,VALID,0,VALID,102.528,VALID,0,VALID,23.772,VALID,317,VALID,0,
2011-03-04, 02:14:04,VALID,1007.57,VALID,0,VALID,102.505,VALID,0,VALID,23.7507,VALID,317,VALID,0,
2011-03-04, 02:15:04,VALID,1007.55,VALID,0,VALID,102.482,VALID,0,VALID,23.7525,VALID,317,VALID,0,
2011-03-04, 02:16:04,VALID,1007.55,VALID,0,VALID,102.421,VALID,0,VALID,23.7507,VALID,317,VALID,0,
2011-03-04, 02:17:04,VALID,1007.53,VALID,0,VALID,102.383,VALID,0,VALID,23.772,VALID,317,VALID,0,
2011-03-04, 02:18:04,VALID,1007.54,VALID,0,VALID,102.338,VALID,0.105969,VALID,23.7525,VALID,317,VALID,0,
2011-03-04, 02:19:04,VALID,1007.52,VALID,0,VALID,102.307,VALID,0,VALID,23.7312,VALID,317,VALID,0.090625,
2011-03-04, 02:20:04,VALID,1007.52,VALID,0,VALID,102.307,VALID,0,VALID,23.7525,VALID,317,VALID,0.0625,
2011-03-04, 02:21:04,VALID,1007.48,VALID,0,VALID,102.307,VALID,0,VALID,23.7117,VALID,317,VALID,0.103516,
2011-03-04, 02:22:04,VALID,1007.48,VALID,0,VALID,102.315,VALID,0.105969,VALID,23.6922,VALID,317,VALID,0,
2011-03-04, 02:23:04,VALID,1007.5,VALID,0,VALID,102.444,VALID,0.105969,VALID,23.6727,VALID,317,VALID,0,
2011-03-04, 02:24:04,VALID,1007.51,VALID,0,VALID,102.505,VALID,0,VALID,23.6532,VALID,317,VALID,0,
2011-03-04, 02:25:04,VALID,1007.5,VALID,0,VALID,102.597,VALID,0,VALID,23.655,VALID,317,VALID,0,
2011-03-04, 02:26:04,VALID,1007.5,VALID,0,VALID,102.666,VALID,0,VALID,23.6338,VALID,317,VALID,0,
2011-03-04, 02:27:04,VALID,1007.53,VALID,0,VALID,102.711,VALID,0,VALID,23.6356,VALID,317,VALID,0,
2011-03-04, 02:28:04,VALID,1007.54,VALID,0,VALID,102.734,VALID,0,VALID,23.6161,VALID,317,VALID,0,
2011-03-04, 02:29:04,VALID,1007.54,VALID,0,VALID,102.78,VALID,0,VALID,23.5966,VALID,317,VALID,0,
2011-03-04, 02:30:04,VALID,1007.54,VALID,0,VALID,102.826,VALID,0,VALID,23.5966,VALID,317,VALID,0,
2011-03-04, 02:31:04,VALID,1007.52,VALID,0,VALID,102.818,VALID,0,VALID,23.5771,VALID,317,VALID,0,
2011-03-04, 02:32:04,VALID,1007.53,VALID,0,VALID,102.81,VALID,0,VALID,23.5771,VALID,317,VALID,0,
2011-03-04, 02:33:04,VALID,1007.5,VALID,0,VALID,102.856,VALID,0,VALID,23.5771,VALID,317,VALID,0,
2011-03-04, 02:34:04,VALID,1007.48,VALID,0,VALID,102.879,VALID,0,VALID,23.5771,VALID,317,VALID,0,
2011-03-04, 02:35:04,VALID,1007.49,VALID,0,VALID,102.91,VALID,0,VALID,23.5558,VALID,317,VALID,0,
2011-03-04, 02:36:04,VALID,1007.46,VALID,0,VALID,102.948,VALID,0,VALID,23.5558,VALID,317,VALID,0,
2011-03-04, 02:37:04,VALID,1007.49,VALID,0,VALID,102.917,VALID,0.105969,VALID,23.5576,VALID,317,VALID,0,
2011-03-04, 02:38:04,VALID,1007.49,VALID,0,VALID,102.856,VALID,0,VALID,23.5381,VALID,317,VALID,0,
2011-03-04, 02:39:04,VALID,1007.48,VALID,0,VALID,102.856,VALID,0,VALID,23.5186,VALID,317,VALID,0,
2011-03-04, 02:40:04,VALID,1007.52,VALID,0,VALID,102.902,VALID,0,VALID,23.4992,VALID,317,VALID,0,
2011-03-04, 02:41:04,VALID,1007.5,VALID,0,VALID,102.978,VALID,0,VALID,23.4602,VALID,317,VALID,0,
2011-03-04, 02:42:04,VALID,1007.54,VALID,0,VALID,103.07,VALID,0,VALID,23.4407,VALID,340,VALID,0.391797,
2011-03-04, 02:43:04,VALID,1007.53,VALID,0,VALID,103.108,VALID,0,VALID,23.4212,VALID,340,VALID,0.0371094,
2011-03-04, 02:44:04,VALID,1007.6,VALID,0,VALID,103.115,VALID,0,VALID,23.4017,VALID,340,VALID,0,
2011-03-04, 02:45:04,VALID,1007.61,VALID,0,VALID,103.207,VALID,0,VALID,23.3823,VALID,340,VALID,0,
2011-03-04, 02:46:04,VALID,1007.62,VALID,0,VALID,103.291,VALID,0,VALID,23.3628,VALID,340,VALID,0,
2011-03-04, 02:47:04,VALID,1007.62,VALID,0,VALID,103.359,VALID,0,VALID,23.3433,VALID,340,VALID,0,
2011-03-04, 02:48:04,VALID,1007.62,VALID,0,VALID,103.451,VALID,0,VALID,23.3433,VALID,340,VALID,0,
2011-03-04, 02:49:04,VALID,1007.63,VALID,0,VALID,103.504,VALID,0,VALID,23.3433,VALID,340,VALID,0,
2011-03-04, 02:50:04,VALID,1007.6,VALID,0,VALID,103.512,VALID,0,VALID,23.3238,VALID,340,VALID,0,
2011-03-04, 02:51:04,VALID,1007.62,VALID,0,VALID,103.52,VALID,0,VALID,23.2848,VALID,340,VALID,0,
2011-03-04, 02:52:04,VALID,1007.62,VALID,0,VALID,103.558,VALID,0,VALID,23.2866,VALID,340,VALID,0,
2011-03-04, 02:53:04,VALID,1007.6,VALID,0,VALID,103.619,VALID,0,VALID,23.2459,VALID,340,VALID,0,
2011-03-04, 02:54:04,VALID,1007.62,VALID,0,VALID,103.672,VALID,0,VALID,23.2459,VALID,340,VALID,0,
2011-03-04, 02:55:04,VALID,1007.62,VALID,0,VALID,103.733,VALID,0,VALID,23.2264,VALID,340,VALID,0.227734,
2011-03-04, 02:56:04,VALID,1007.64,VALID,0,VALID,103.794,VALID,0,VALID,23.2476,VALID,340,VALID,0,
2011-03-04, 02:57:04,VALID,1007.66,VALID,0,VALID,103.817,VALID,0,VALID,23.2069,VALID,340,VALID,0,
2011-03-04, 02:58:04,VALID,1007.65,VALID,0,VALID,103.832,VALID,0,VALID,23.2282,VALID,340,VALID,0,
2011-03-04, 02:59:04,VALID,1007.62,VALID,0,VALID,103.863,VALID,0,VALID,23.1874,VALID,340,VALID,0,
2011-03-04, 03:00:04,VALID,1007.63,VALID,0,VALID,103.87,VALID,0,VALID,23.1892,VALID,340,VALID,0,
2011-03-04, 03:01:04,VALID,1007.64,VALID,0,VALID,103.924,VALID,0,VALID,23.1679,VALID,340,VALID,0,
2011-03-04, 03:02:04,VALID,1007.61,VALID,0,VALID,103.939,VALID,0,VALID,23.1679,VALID,340,VALID,0,
2011-03-04, 03:03:04,VALID,1007.6,VALID,0,VALID,103.985,VALID,0,VALID,23.1679,VALID,340,VALID,0,
2011-03-04, 03:04:04,VALID,1007.59,VALID,0,VALID,104,VALID,0,VALID,23.1485,VALID,340,VALID,0,
2011-03-04, 03:05:04,VALID,1007.59,VALID,0,VALID,104,VALID,0,VALID,23.129,VALID,340,VALID,0,
2011-03-04, 03:06:04,VALID,1007.57,VALID,0,VALID,104,VALID,0,VALID,23.129,VALID,340,VALID,0,
2011-03-04, 03:07:04,VALID,1007.59,VALID,0,VALID,104,VALID,0,VALID,23.1307,VALID,340,VALID,0,
2011-03-04, 03:08:04,VALID,1007.56,VALID,0,VALID,104,VALID,0,VALID,23.1077,VALID,340,VALID,0,
2011-03-04, 03:09:05,VALID,1007.54,VALID,0,VALID,104,VALID,0.105969,VALID,23.1077,VALID,340,VALID,0,
2011-03-04, 03:10:05,VALID,1007.51,VALID,0,VALID,104,VALID,0.105969,VALID,23.1077,VALID,340,VALID,0,
2011-03-04, 03:11:05,VALID,1007.51,VALID,0,VALID,104,VALID,0.105969,VALID,23.1095,VALID,340,VALID,0,
2011-03-04, 03:12:05,VALID,1007.53,VALID,0,VALID,104,VALID,0,VALID,23.1095,VALID,340,VALID,0,
2011-03-04, 03:13:05,VALID,1007.53,VALID,0,VALID,104,VALID,0,VALID,23.0883,VALID,340,VALID,0,
2011-03-04, 03:14:05,VALID,1007.53,VALID,0,VALID,104,VALID,0,VALID,23.0493,VALID,340,VALID,0,
2011-03-04, 03:15:05,VALID,1007.52,VALID,0,VALID,104,VALID,0,VALID,23.0493,VALID,340,VALID,0,
2011-03-04, 03:16:05,VALID,1007.53,VALID,0,VALID,104,VALID,0,VALID,23.0511,VALID,340,VALID,0,
2011-03-04, 03:17:05,VALID,1007.53,VALID,0,VALID,104,VALID,0,VALID,23.0298,VALID,340,VALID,0,
2011-03-04, 03:18:05,VALID,1007.56,VALID,0,VALID,104,VALID,0,VALID,23.0316,VALID,340,VALID,0,
2011-03-04, 03:19:05,VALID,1007.55,VALID,0,VALID,104,VALID,0,VALID,23.0103,VALID,340,VALID,0,
2011-03-04, 03:20:05,VALID,1007.58,VALID,0,VALID,104,VALID,0,VALID,22.9909,VALID,340,VALID,0,
2011-03-04, 03:21:05,VALID,1007.57,VALID,0,VALID,104,VALID,0,VALID,22.9909,VALID,340,VALID,0,
2011-03-04, 03:22:05,VALID,1007.56,VALID,0,VALID,104,VALID,0,VALID,22.9909,VALID,340,VALID,0,
2011-03-04, 03:23:05,VALID,1007.58,VALID,0,VALID,104,VALID,0,VALID,22.9731,VALID,340,VALID,0,
2011-03-04, 03:24:05,VALID,1007.55,VALID,0,VALID,104,VALID,0,VALID,22.9926,VALID,340,VALID,0,
2011-03-04, 03:25:05,VALID,1007.53,VALID,0,VALID,104,VALID,0,VALID,22.9926,VALID,340,VALID,0,
2011-03-04, 03:26:05,VALID,1007.52,VALID,0,VALID,104,VALID,0,VALID,22.9731,VALID,340,VALID,0,
2011-03-04, 03:27:05,VALID,1007.51,VALID,0,VALID,104,VALID,0,VALID,22.9731,VALID,340,VALID,0,
2011-03-04, 03:28:05,VALID,1007.52,VALID,0,VALID,104,VALID,0,VALID,22.9731,VALID,340,VALID,0,
2011-03-04, 03:29:05,VALID,1007.51,VALID,0,VALID,104,VALID,0,VALID,22.9926,VALID,340,VALID,0,
2011-03-04, 03:30:05,VALID,1007.5,VALID,0,VALID,104,VALID,0,VALID,22.9731,VALID,340,VALID,0,
2011-03-04, 03:31:05,VALID,1007.52,VALID,0,VALID,104,VALID,0,VALID,22.9731,VALID,340,VALID,0,
2011-03-04, 03:32:05,VALID,1007.52,VALID,0,VALID,104,VALID,0,VALID,22.9536,VALID,340,VALID,0,
2011-03-04, 03:33:05,VALID,1007.56,VALID,0,VALID,104,VALID,0,VALID,22.9536,VALID,340,VALID,0,
2011-03-04, 03:34:05,VALID,1007.54,VALID,0,VALID,104,VALID,0,VALID,22.9342,VALID,340,VALID,0,
2011-03-04, 03:35:05,VALID,1007.51,VALID,0,VALID,104,VALID,0,VALID,22.9342,VALID,340,VALID,0,
2011-03-04, 03:36:05,VALID,1007.5,VALID,0,VALID,104,VALID,0,VALID,22.9342,VALID,340,VALID,0,
2011-03-04, 03:37:05,VALID,1007.53,VALID,0,VALID,104,VALID,0,VALID,22.9342,VALID,340,VALID,0,
2011-03-04, 03:38:05,VALID,1007.5,VALID,0,VALID,104,VALID,0,VALID,22.9342,VALID,340,VALID,0,
2011-03-04, 03:39:05,VALID,1007.51,VALID,0,VALID,104,VALID,0,VALID,22.9147,VALID,340,VALID,0,
2011-03-04, 03:40:05,VALID,1007.5,VALID,0,VALID,104,VALID,0,VALID,22.9147,VALID,340,VALID,0,
2011-03-04, 03:41:05,VALID,1007.49,VALID,0,VALID,104,VALID,0,VALID,22.9147,VALID,340,VALID,0,
2011-03-04, 03:42:05,VALID,1007.48,VALID,0,VALID,104,VALID,0,VALID,22.8952,VALID,340,VALID,0,
2011-03-04, 03:43:05,VALID,1007.47,VALID,0,VALID,104,VALID,0,VALID,22.8757,VALID,340,VALID,0,
2011-03-04, 03:44:05,VALID,1007.46,VALID,0,VALID,104,VALID,0,VALID,22.8952,VALID,340,VALID,0,
2011-03-04, 03:45:05,VALID,1007.46,VALID,0,VALID,104,VALID,0,VALID,22.8952,VALID,340,VALID,0,
2011-03-04, 03:46:05,VALID,1007.45,VALID,0,VALID,104,VALID,0,VALID,22.8757,VALID,340,VALID,0,
2011-03-04, 03:47:05,VALID,1007.47,VALID,0,VALID,104,VALID,0,VALID,22.8757,VALID,340,VALID,0,
2011-03-04, 03:48:05,VALID,1007.46,VALID,0,VALID,104,VALID,0,VALID,22.8562,VALID,340,VALID,0,
2011-03-04, 03:49:05,VALID,1007.44,VALID,0,VALID,104,VALID,0,VALID,22.8562,VALID,340,VALID,0,
2011-03-04, 03:50:05,VALID,1007.46,VALID,0,VALID,104,VALID,0,VALID,22.835,VALID,340,VALID,0,
2011-03-04, 03:51:05,VALID,1007.46,VALID,0,VALID,104,VALID,0,VALID,22.8368,VALID,340,VALID,0,
2011-03-04, 03:52:05,VALID,1007.45,VALID,0,VALID,104,VALID,0,VALID,22.8757,VALID,340,VALID,0,